Time,TemperatureF,DewpointF,PressureIn,WindDirection,WindDirectionDegrees,WindSpeedMPH,WindSpeedGustMPH,Humidity,HourlyPrecipIn,Conditions,Clouds,dailyrainin,SolarRadiationWatts/m^2,SoftwareType,DateUTC
2013-09-13 00:02:00,58.0,57.0,-100.00,NNE,17,1.0,5.0,96,0.00,,,0.00,0.000000,,2013-09-13 07:02:00,
2013-09-13 00:11:00,58.0,57.0,-100.00,NNE,17,1.0,5.0,96,0.00,,,0.00,0.000000,,2013-09-13 07:11:00,
2013-09-13 00:43:00,57.0,56.0,-100.00,WNW,298,5.0,6.0,97,0.00,,,0.00,0.000000,,2013-09-13 07:43:00,
2013-09-13 00:52:00,57.0,56.0,-100.00,WNW,298,5.0,6.0,97,0.00,,,0.00,0.000000,,2013-09-13 07:52:00,
2013-09-13 01:01:00,57.0,56.0,-100.00,WNW,298,5.0,6.0,97,0.00,,,0.00,0.000000,,2013-09-13 08:01:00,
2013-09-13 01:11:00,57.0,56.0,-100.00,WNW,298,5.0,6.0,97,0.00,,,0.00,0.000000,,2013-09-13 08:11:00,
2013-09-13 01:42:00,57.0,56.0,-100.00,North,5,3.0,9.0,97,0.00,,,-99.99,0.000000,,2013-09-13 08:42:00,
2013-09-13 01:52:00,57.0,56.0,-100.00,North,5,3.0,9.0,97,0.00,,,-99.99,0.000000,,2013-09-13 08:52:00,
2013-09-13 02:02:00,57.0,56.0,-100.00,North,5,3.0,9.0,97,0.00,,,-99.99,0.000000,,2013-09-13 09:02:00,
2013-09-13 02:11:00,57.0,56.0,-100.00,North,5,3.0,9.0,97,0.00,,,-99.99,0.000000,,2013-09-13 09:11:00,
2013-09-13 02:43:00,56.0,55.0,-100.00,NNE,25,2.0,8.0,98,0.00,,,0.00,0.000000,,2013-09-13 09:43:00,
2013-09-13 02:54:00,56.0,55.0,-100.00,NNE,25,2.0,8.0,98,0.00,,,0.00,0.000000,,2013-09-13 09:54:00,
2013-09-13 03:03:00,56.0,55.0,-100.00,NNE,25,2.0,8.0,98,0.00,,,0.00,0.000000,,2013-09-13 10:03:00,
2013-09-13 03:12:00,56.0,55.0,-100.00,NNE,25,2.0,8.0,98,0.00,,,0.00,0.000000,,2013-09-13 10:12:00,
2013-09-13 03:42:00,56.0,55.0,-100.00,NNE,15,3.0,6.0,98,0.01,,,0.01,0.000000,,2013-09-13 10:42:00,
2013-09-13 03:53:00,56.0,55.0,-100.00,NNE,15,3.0,6.0,98,0.01,,,0.01,0.000000,,2013-09-13 10:53:00,
2013-09-13 04:03:00,56.0,55.0,-100.00,NNE,15,3.0,6.0,98,0.01,,,0.01,0.000000,,2013-09-13 11:03:00,
2013-09-13 04:12:00,56.0,55.0,-100.00,NNE,15,3.0,6.0,98,0.01,,,0.01,0.000000,,2013-09-13 11:12:00,
2013-09-13 04:42:00,55.0,54.0,-100.00,NNE,16,2.0,5.0,98,0.00,,,0.01,0.000000,,2013-09-13 11:42:00,
2013-09-13 04:52:00,55.0,54.0,-100.00,NNE,16,2.0,5.0,98,0.00,,,0.01,0.000000,,2013-09-13 11:52:00,
2013-09-13 05:01:00,55.0,54.0,-100.00,NNE,16,2.0,5.0,98,0.00,,,0.01,0.000000,,2013-09-13 12:01:00,
2013-09-13 05:11:00,55.0,54.0,-100.00,NNE,16,2.0,5.0,98,0.00,,,0.01,0.000000,,2013-09-13 12:11:00,
2013-09-13 05:42:00,55.0,54.0,-100.00,North,8,4.0,6.0,98,0.01,,,0.02,0.000000,,2013-09-13 12:42:00,
2013-09-13 05:52:00,55.0,54.0,-100.00,North,8,4.0,6.0,98,0.01,,,0.02,0.000000,,2013-09-13 12:52:00,
2013-09-13 06:02:00,55.0,54.0,-100.00,North,8,4.0,6.0,98,0.01,,,0.02,0.000000,,2013-09-13 13:02:00,
2013-09-13 06:11:00,55.0,54.0,-100.00,North,8,4.0,6.0,98,0.01,,,0.02,0.000000,,2013-09-13 13:11:00,
2013-09-13 06:42:00,55.0,54.0,-100.00,NNW,344,4.0,6.0,98,0.00,,,0.02,0.000000,,2013-09-13 13:42:00,
2013-09-13 06:52:00,55.0,54.0,-100.00,NNW,344,4.0,6.0,98,0.00,,,0.02,0.000000,,2013-09-13 13:52:00,
2013-09-13 07:02:00,55.0,54.0,-100.00,NNW,344,4.0,6.0,98,0.00,,,0.02,0.000000,,2013-09-13 14:02:00,
2013-09-13 07:11:00,55.0,54.0,-100.00,NNW,344,4.0,6.0,98,0.00,,,0.02,0.000000,,2013-09-13 14:11:00,
2013-09-13 07:42:00,54.0,53.0,-100.00,East,86,2.0,4.0,98,0.01,,,-99.99,2.000000,,2013-09-13 14:42:00,
2013-09-13 07:52:00,54.0,53.0,-100.00,East,86,2.0,4.0,98,0.01,,,-99.99,2.000000,,2013-09-13 14:52:00,
2013-09-13 08:02:00,54.0,53.0,-100.00,East,86,2.0,4.0,98,0.01,,,-99.99,2.000000,,2013-09-13 15:02:00,
2013-09-13 08:11:00,54.0,53.0,-100.00,East,86,2.0,4.0,98,0.01,,,-99.99,2.000000,,2013-09-13 15:11:00,
2013-09-13 08:43:00,55.0,54.0,-100.00,ENE,62,1.0,3.0,98,0.00,,,-99.99,46.000000,,2013-09-13 15:43:00,
2013-09-13 08:53:00,55.0,54.0,-100.00,ENE,62,1.0,3.0,98,0.00,,,-99.99,46.000000,,2013-09-13 15:53:00,
2013-09-13 09:03:00,55.0,54.0,-100.00,ENE,62,1.0,3.0,98,0.00,,,-99.99,46.000000,,2013-09-13 16:03:00,
2013-09-13 09:12:00,55.0,54.0,-100.00,ENE,62,1.0,3.0,98,0.00,,,-99.99,46.000000,,2013-09-13 16:12:00,
2013-09-13 09:13:00,56.0,55.0,-100.00,NNE,24,2.0,5.0,98,0.00,,,0.03,141.000000,,2013-09-13 16:13:00,
2013-09-13 09:43:00,56.0,55.0,-100.00,NNE,24,2.0,5.0,98,0.00,,,0.03,141.000000,,2013-09-13 16:43:00,
2013-09-13 09:54:00,56.0,55.0,-100.00,NNE,24,2.0,5.0,98,0.00,,,0.03,141.000000,,2013-09-13 16:54:00,
2013-09-13 10:03:00,56.0,55.0,-100.00,NNE,24,2.0,5.0,98,0.00,,,0.03,141.000000,,2013-09-13 17:03:00,
2013-09-13 10:44:00,57.0,56.0,-100.00,NW,324,4.0,8.0,97,0.00,,,0.03,224.000000,,2013-09-13 17:44:00,
2013-09-13 10:53:00,57.0,56.0,-100.00,NW,324,4.0,8.0,97,0.00,,,0.03,224.000000,,2013-09-13 17:53:00,
2013-09-13 11:02:00,57.0,56.0,-100.00,NW,324,4.0,8.0,97,0.00,,,0.03,224.000000,,2013-09-13 18:02:00,
2013-09-13 11:12:00,57.0,56.0,-100.00,NW,324,4.0,8.0,97,0.00,,,0.03,224.000000,,2013-09-13 18:12:00,
2013-09-13 11:42:00,59.0,58.0,-100.00,NNW,334,3.0,9.0,97,0.00,,,0.03,291.000000,,2013-09-13 18:42:00,
2013-09-13 11:52:00,59.0,58.0,-100.00,NNW,334,3.0,9.0,97,0.00,,,0.03,291.000000,,2013-09-13 18:52:00,
2013-09-13 12:01:00,59.0,58.0,-100.00,NNW,334,3.0,9.0,97,0.00,,,0.03,291.000000,,2013-09-13 19:01:00,
2013-09-13 12:11:00,59.0,58.0,-100.00,NNW,334,3.0,9.0,97,0.00,,,0.03,291.000000,,2013-09-13 19:11:00,
2013-09-13 12:43:00,60.0,59.0,-100.00,NW,317,5.0,8.0,96,0.00,,,0.03,359.000000,,2013-09-13 19:43:00,
2013-09-13 12:52:00,60.0,59.0,-100.00,NW,317,5.0,8.0,96,0.00,,,0.03,359.000000,,2013-09-13 19:52:00,
2013-09-13 13:02:00,60.0,59.0,-100.00,NW,317,5.0,8.0,96,0.00,,,0.03,359.000000,,2013-09-13 20:02:00,
2013-09-13 13:11:00,60.0,59.0,-100.00,NW,317,5.0,8.0,96,0.00,,,0.03,359.000000,,2013-09-13 20:11:00,
2013-09-13 13:43:00,67.0,62.0,-100.00,NW,308,3.0,9.0,83,0.00,,,0.03,623.000000,,2013-09-13 20:43:00,
2013-09-13 13:52:00,67.0,62.0,-100.00,NW,308,3.0,9.0,83,0.00,,,0.03,623.000000,,2013-09-13 20:52:00,
2013-09-13 14:02:00,67.0,62.0,-100.00,NW,308,3.0,9.0,83,0.00,,,0.03,623.000000,,2013-09-13 21:02:00,
2013-09-13 14:11:00,67.0,62.0,-100.00,NW,308,3.0,9.0,83,0.00,,,0.03,623.000000,,2013-09-13 21:11:00,
2013-09-13 14:13:00,72.0,59.0,-100.00,NNW,327,5.0,10.0,63,0.00,,,0.03,869.000000,,2013-09-13 21:13:00,
2013-09-13 14:44:00,72.0,59.0,-100.00,NNW,327,5.0,10.0,63,0.00,,,0.03,869.000000,,2013-09-13 21:44:00,
2013-09-13 14:54:00,72.0,59.0,-100.00,NNW,327,5.0,10.0,63,0.00,,,0.03,869.000000,,2013-09-13 21:54:00,
2013-09-13 15:04:00,72.0,59.0,-100.00,NNW,327,5.0,10.0,63,0.00,,,0.03,869.000000,,2013-09-13 22:04:00,
2013-09-13 15:43:00,74.0,59.0,-100.00,NNW,328,8.0,12.0,60,0.00,,,-99.99,814.000000,,2013-09-13 22:43:00,
2013-09-13 15:53:00,74.0,59.0,-100.00,NNW,328,8.0,12.0,60,0.00,,,-99.99,814.000000,,2013-09-13 22:53:00,
2013-09-13 16:03:00,74.0,59.0,-100.00,NNW,328,8.0,12.0,60,0.00,,,-99.99,814.000000,,2013-09-13 23:03:00,
2013-09-13 16:12:00,74.0,59.0,-100.00,NNW,328,8.0,12.0,60,0.00,,,-99.99,814.000000,,2013-09-13 23:12:00,
2013-09-13 16:43:00,72.0,59.0,-100.00,NNW,341,8.0,14.0,64,0.00,,,0.03,694.000000,,2013-09-13 23:43:00,
2013-09-13 16:52:00,72.0,59.0,-100.00,NNW,341,8.0,14.0,64,0.00,,,0.03,694.000000,,2013-09-13 23:52:00,
2013-09-13 17:01:00,72.0,59.0,-100.00,NNW,341,8.0,14.0,64,0.00,,,0.03,694.000000,,2013-09-14 00:01:00,
2013-09-13 17:11:00,72.0,59.0,-100.00,NNW,341,8.0,14.0,64,0.00,,,0.03,694.000000,,2013-09-14 00:11:00,
2013-09-13 17:42:00,68.0,58.0,-100.00,North,354,6.0,15.0,70,0.00,,,0.03,528.000000,,2013-09-14 00:42:00,
2013-09-13 17:52:00,68.0,58.0,-100.00,North,354,6.0,15.0,70,0.00,,,0.03,528.000000,,2013-09-14 00:52:00,
2013-09-13 18:02:00,68.0,58.0,-100.00,North,354,6.0,15.0,70,0.00,,,0.03,528.000000,,2013-09-14 01:02:00,
2013-09-13 18:11:00,68.0,58.0,-100.00,North,354,6.0,15.0,70,0.00,,,0.03,528.000000,,2013-09-14 01:11:00,
2013-09-13 18:42:00,62.0,56.0,-100.00,North,359,6.0,10.0,81,0.00,,,0.03,314.000000,,2013-09-14 01:42:00,
2013-09-13 18:52:00,62.0,56.0,-100.00,North,359,6.0,10.0,81,0.00,,,0.03,314.000000,,2013-09-14 01:52:00,
2013-09-13 19:02:00,62.0,56.0,-100.00,North,359,6.0,10.0,81,0.00,,,0.03,314.000000,,2013-09-14 02:02:00,
2013-09-13 19:11:00,62.0,56.0,-100.00,North,359,6.0,10.0,81,0.00,,,0.03,314.000000,,2013-09-14 02:11:00,
2013-09-13 19:42:00,58.0,55.0,-100.00,NW,318,9.0,12.0,91,0.00,,,0.03,43.000000,,2013-09-14 02:42:00,
2013-09-13 19:52:00,58.0,55.0,-100.00,NW,318,9.0,12.0,91,0.00,,,0.03,43.000000,,2013-09-14 02:52:00,
2013-09-13 20:02:00,58.0,55.0,-100.00,NW,318,9.0,12.0,91,0.00,,,0.03,43.000000,,2013-09-14 03:02:00,
2013-09-13 20:11:00,58.0,55.0,-100.00,NW,318,9.0,12.0,91,0.00,,,0.03,43.000000,,2013-09-14 03:11:00,
2013-09-13 20:13:00,57.0,55.0,-100.00,North,350,3.0,11.0,93,0.00,,,0.03,2.000000,,2013-09-14 03:13:00,
2013-09-13 20:44:00,57.0,55.0,-100.00,North,350,3.0,11.0,93,0.00,,,0.03,2.000000,,2013-09-14 03:44:00,
2013-09-13 20:54:00,57.0,55.0,-100.00,North,350,3.0,11.0,93,0.00,,,0.03,2.000000,,2013-09-14 03:54:00,
2013-09-13 21:04:00,57.0,55.0,-100.00,North,350,3.0,11.0,93,0.00,,,0.03,2.000000,,2013-09-14 04:04:00,
2013-09-13 21:43:00,57.0,56.0,-100.00,NW,326,4.0,7.0,96,0.00,,,0.03,0.000000,,2013-09-14 04:43:00,
2013-09-13 21:54:00,57.0,56.0,-100.00,NW,326,4.0,7.0,96,0.00,,,0.03,0.000000,,2013-09-14 04:54:00,
2013-09-13 22:03:00,57.0,56.0,-100.00,NW,326,4.0,7.0,96,0.00,,,0.03,0.000000,,2013-09-14 05:03:00,
2013-09-13 22:12:00,57.0,56.0,-100.00,NW,326,4.0,7.0,96,0.00,,,0.03,0.000000,,2013-09-14 05:12:00,
2013-09-13 22:43:00,56.0,55.0,-100.00,NW,312,7.0,10.0,97,0.00,,,0.03,0.000000,,2013-09-14 05:43:00,
2013-09-13 22:52:00,56.0,55.0,-100.00,NW,312,7.0,10.0,97,0.00,,,0.03,0.000000,,2013-09-14 05:52:00,
2013-09-13 23:02:00,56.0,55.0,-100.00,NW,312,7.0,10.0,97,0.00,,,0.03,0.000000,,2013-09-14 06:02:00,
2013-09-13 23:12:00,56.0,55.0,-100.00,NW,312,7.0,10.0,97,0.00,,,0.03,0.000000,,2013-09-14 06:12:00,
2013-09-13 23:42:00,56.0,55.0,-100.00,North,7,2.0,8.0,98,0.00,,,0.03,0.000000,,2013-09-14 06:42:00,
2013-09-13 23:52:00,56.0,55.0,-100.00,North,7,2.0,8.0,98,0.00,,,0.03,0.000000,,2013-09-14 06:52:00,